Location: Newark
(13.5236°S, 71.9791°W)
Time: 02:35:32
(UTC+00:00)

N. Korean satellite - Visible Passes

Search period start: 17 July 2019 00:00
Search period end: 27 July 2019 00:00
Orbit: 456 x 508 km, 97.2° (Epoch: 16 July)

Date Brightness Start Highest point End Pass type
(mag) Time Alt. Az. Time Alt. Az. Time Alt. Az.
17 Jul 7.4 10:45:48 10° NNW 10:49:10 33° W 10:52:34 10° SW visible
18 Jul 6.6 10:20:23 10° N 10:24:06 89° WNW 10:27:50 10° S visible
19 Jul 8.3 09:55:42 10° NE 09:59:05 34° ESE 10:02:29 10° SSE visible
19 Jul 9.2 23:10:12 10° SSW 23:12:51 21° WSW 23:15:29 10° NW visible
20 Jul 9.6 09:32:02 10° ENE 09:34:06 14° ESE 09:36:11 10° SE visible
21 Jul 7.1 10:38:37 10° N 10:42:09 42° W 10:45:41 10° SSW visible
22 Jul 6.9 10:13:24 10° NNE 10:17:06 70° ESE 10:20:47 10° S visible
22 Jul 9.8 23:29:54 10° WSW 23:30:47 11° WSW 23:31:40 10° W visible
23 Jul 8.8 09:48:55 10° NE 09:52:04 27° ESE 09:55:14 10° SSE visible
23 Jul 8.8 23:02:51 10° SSW 23:05:48 27° WSW 23:08:44 10° NW visible
24 Jul 9.8 09:25:56 10° E 09:27:06 11° ESE 09:28:16 10° ESE visible
25 Jul 6.7 10:31:29 10° N 10:35:06 55° W 10:38:44 10° SSW visible
26 Jul 7.4 10:06:27 10° NNE 10:10:03 53° ESE 10:13:39 10° S visible
26 Jul 9.5 23:21:52 10° SW 23:23:43 14° WSW 23:25:34 10° WNW visible
